Location: Leiter
(44.7178°N, 106.2687°W)
Time: 04:24:18
(UTC+00:00)

NOAA 19 - Pass Details

Date: 01 July 2022
Orbit: 840 x 861 km, 99.1° (Epoch: 09 August)

Event Time Altitude Azimuth Distance (km) Brightness Sun altitude
Rises 03:58:22 0° 221° (SW) 3,420 8.3 -9.4°
Reaches altitude 10° 04:02:40 10° 254° (WSW) 2,486 8.0 -10.0°
Maximum altitude 04:04:27 12° 273° (W) 2,381 8.2 -10.2°
Drops below altitude 10° 04:06:14 10° 292° (WNW) 2,488 8.8 -10.4°
Sets 04:10:34 0° 325° (NW) 3,425 10.5 -10.9°
